Flag for Haiti Weather past 2 weeks in Port-au-Prince, Haiti

Now
77 °F

Passing clouds.


Feels Like: 78 °F
Forecast: 74 / 96 °F
Wind: 7 mph from Southeast

Location: Santiago

Current Time: Jul 1, 2015 at 11:58:51 PM

Latest Report: Jul 1, 2015 at 11:00 PM


Visibility: N/A

Pressure: 30.09 "Hg

Humidity: 83%

Dew point: 72 °F

Location of Port-au-PrinceLocation

Historic Weather in Port-au-Prince — Graph

°F

Port-au-Prince temperature yesterday

Maximum temperature yesterday: 84 °F (at 10:00 AM)
Minimum temperature yesterday: 73 °F (at 6:00 AM)
Average temperature yesterday: 78 °F

Past Weeks' High & Low Weather Summary

 TemperatureHumidityPressure
High93 °F (Jun 19, 4:00 PM)100% (Jun 19, 7:00 AM)30.15 "Hg (Jun 19, 7:00 AM)
Low70 °F (Jun 23, 7:00 AM)44% (Jun 21, 4:00 PM)29.95 "Hg (Jun 17, 4:00 PM)
Average81 °F76%30.07 "Hg
* Reported Jun 16 10:00 PM — Jul 1 10:00 PM, Port-au-Prince, Weather by CustomWeather, © 2015

Note: Actual official high and low records may vary slightly from our data, if they occured in-between our weather recording intervals... More about our weather records

Advertising

Port-au-Prince weather history for previous 24 hours

 ConditionsComfort  
Time TempWeatherWind HumidityBarometerVisibility
10:00 PM
Wed, Jul 1
77 °FPassing clouds.7 mph83%30.09 "HgN/A
9:00 PM77 °FPassing clouds.9 mph83%30.07 "HgN/A
8:00 PM79 °FPassing clouds.9 mph84%30.07 "HgN/A
7:00 PM81 °FPartly sunny.7 mph70%30.04 "HgN/A
6:00 PM81 °FPartly sunny.16 mph74%30.04 "HgN/A
5:00 PM86 °FPartly sunny.17 mph66%30.04 "HgN/A
4:00 PM88 °FScattered clouds.17 mph59%30.04 "HgN/A
3:23 PM88 °FScattered clouds.16 mph59%30.04 "HgN/A
2:00 PM88 °FScattered clouds.15 mph59%30.07 "HgN/A
1:00 PM86 °FRain. Scattered clouds.16 mph62%30.09 "Hg4 mi
12:00 PM86 °FScattered clouds.14 mph62%30.09 "HgN/A
11:00 AM88 °FScattered clouds.16 mph59%30.12 "HgN/A
10:00 AM84 °FPassing clouds.15 mph70%30.12 "HgN/A
9:00 AM81 °FPassing clouds.5 mph79%30.09 "HgN/A
8:00 AM75 °FPassing clouds.9 mph94%30.09 "HgN/A
7:00 AM73 °FRain. Scattered clouds.9 mph94%30.09 "Hg5 mi
6:00 AM73 °FPassing clouds.7 mph94%30.09 "HgN/A
5:00 AM73 °FThunderstorms. Passing clouds.5 mph94%30.09 "HgN/A
4:00 AM75 °FThundershowers. Passing clouds.9 mph94%30.07 "HgN/A
3:00 AM73 °FPassing clouds.7 mph94%30.09 "HgN/A
2:00 AM75 °FPassing clouds.7 mph94%30.09 "HgN/A
1:00 AM75 °FPassing clouds.5 mph94%30.12 "HgN/A
12:00 AM75 °FPassing clouds.7 mph94%30.15 "HgN/A
11:00 PM
Tue, Jun 30
75 °FPassing clouds.7 mph89%30.12 "HgN/A
Weather by CustomWeather, © 2015

See weather overviewHow to use our weather pages